Location: Ventura Heights
(43.1177°N, 93.4741°W)
Time: 22:03:34
(UTC+00:00)

Daily predictions for brighter satellites

Satellite Brightness Start Highest point End
(mag) Time Altitude Azimuth Time Altitude Azimuth Time Altitude Azimuth
Lacrosse 5 rocket 1.4 12:01:34 19° WSW 12:04:30 60° NW 12:08:50 10° NE
ARIANE 5 R/B 3.2 12:00:56 10° N 12:05:30 32° WNW 12:10:04 10° SW
NOAA 12 4.0 12:01:14 10° N 12:06:29 66° WNW 12:11:40 10° SSW
BREEZE-M R/B 4.0 12:04:17 20° WNW 12:09:21 52° SW 12:13:22 10° SSE
Cosmos 2151 3.2 12:05:46 10° S 12:09:54 72° E 12:14:08 10° NNE
Cosmos 1378 4.4 12:06:52 10° N 12:10:10 39° ENE 12:13:25 10° SSE
Cosmos 2034 Rocket 4.5 12:05:47 10° SW 12:11:33 36° WNW 12:17:19 10° N
ARGOS 3.1 12:07:30 10° N 12:12:49 62° WNW 12:18:06 10° SSW
CZ-2C R/B 3.2 12:09:57 10° NNE 12:13:41 63° E 12:17:27 10° S
USA 229 DEB 3.8 12:07:44 10° WSW 12:13:44 49° NW 12:20:19 10° NNE
USA 229 3.7 12:07:46 10° WSW 12:13:47 49° NW 12:20:23 10° NNE
SJ-11-01 4.3 12:09:38 10° NNE 12:14:20 88° ESE 12:19:01 10° SSW
Cosmos 2278 Rocket 2.5 12:08:52 10° NNW 12:14:32 70° ENE 12:20:10 10° SSE
Cosmos 1933 3.9 12:12:02 16° NNW 12:14:43 34° W 12:18:18 10° SSW
Geosat 4.4 12:13:18 10° NNE 12:17:59 40° NW 12:22:37 10° WSW
Cosmos 1842 Rocket 3.9 12:14:55 10° N 12:19:21 70° E 12:23:46 10° SSE
Cosmos 1825 Rocket 4.1 12:15:36 10° SW 12:19:37 35° WNW 12:23:38 10° N
CZ-3B R/B 4.4 12:15:37 14° NW 12:20:40 68° NE 12:45:11 10° ESE
Cosmos 2237 Rocket 2.6 12:15:21 10° SSW 12:20:58 68° ESE 12:26:36 10° NNE
SL-08 R/B 3.9 12:17:49 10° SSW 12:22:06 35° W 12:26:22 10° NNW
Meteor 2-3 Rocket 4.3 12:19:43 10° SW 12:24:45 34° WNW 12:29:49 10° N
ATLAS 5 CENTAUR R/B 4.3 12:23:08 10° SSE 12:25:17 16° ESE 12:27:31 10° ENE
SJ-7 4.4 12:21:12 10° NNE 12:25:20 85° W 12:29:25 10° SSW
Cosmos 1862 3.6 12:23:57 10° SSW 12:27:33 39° WNW 12:31:11 10° N
Cosmos 2322 4.3 12:23:23 10° WSW 12:28:33 35° NW 12:33:44 10° N
Cosmos 1500 2.9 12:25:36 10° S 12:29:09 90° W 12:32:43 10° N
Spot 4 Rocket 4.3 12:24:26 10° N 12:29:20 45° WNW 12:34:13 10° SW
Cosmos 1048 Rocket 4.4 12:26:25 10° SW 12:31:10 37° WNW 12:35:55 10° N
Cosmos 1544 3.0 12:30:24 10° SSW 12:33:29 45° W 12:36:36 10° N
SAR-Lupe-2 3.6 12:31:30 10° N 12:35:02 57° WNW 12:38:32 10° SSW
SL-08 RB Rocket 4.1 12:31:54 10° N 12:36:14 42° WNW 12:40:34 10° SW
DELTA 2 DEB (DPAF) 4.0 12:32:08 10° S 12:36:23 65° WSW 12:40:40 10° NNW
Meteor 1-31 Rocket 3.1 12:32:47 10° NNE 12:36:34 69° ESE 12:40:20 10° S
Aureole 2 4.2 12:33:54 10° NNW 12:37:01 54° WSW 12:39:53 10° S
Cosmos 1331 Rocket 4.2 12:32:17 10° NNW 12:37:22 53° WSW 12:42:23 10° S
CZ-4C R/B 4.2 12:37:35 10° SSE 12:41:37 54° ENE 12:45:44 10° N
Helios 1B rocket 2.8 12:42:09 10° N 12:45:52 39° WNW 12:49:35 10° SW
Cosmos 2266 Rocket 4.2 12:40:07 10° N 12:46:12 74° E 12:52:19 10° SSE
USA 281 4.1 12:41:56 10° N 12:47:09 26° NW 12:52:20 10° WSW
CZ-4B R/B 3.9 12:44:32 10° NNE 12:48:30 86° WNW 12:52:37 10° SSW
BlueWalker 3 3.9 12:47:29 10° W 12:49:42 15° SW 12:51:53 10° SSW
GENESIS II 4.2 12:49:41 10° SSW 12:53:31 84° SE 12:57:24 10° NE
Cosmos 1076 Rocket 3.8 12:50:02 10° SSW 12:54:08 44° WNW 12:58:18 10° N
AQUARIUS 4.1 12:51:25 10° NNE 12:55:54 84° W 13:00:21 10° SSW
ATLAS 3B R/B 4.3 12:52:03 10° WNW 12:56:56 18° NNW 13:02:00 10° NNE
NOSS 0 Rocket 4.2 12:51:57 10° SW 12:57:58 49° WNW 13:04:03 10° NNE
Cosmos 1461 3.9 12:55:22 10° SSW 12:59:44 56° ESE 13:04:04 10° NE
Cosmos 1437 Rocket 3.4 12:56:39 10° SW 12:59:57 30° WNW 13:03:16 10° N
Cosmos 2219 Rocket 3.7 12:56:59 10° W 13:00:20 16° NW 13:03:42 10° N
SeaSat 1 2.7 12:55:34 10° SE 13:00:28 77° ENE 13:05:24 10° NNW
USA 215 3.5 12:57:02 10° NE 13:03:19 52° NNW 13:09:35 10° WSW
ATLAS 2AS CENTAUR R/B 4.0 23:03:29 10° NNW 23:08:25 20° NNE 23:13:12 10° ENE
SAR-Lupe-2 3.5 23:07:32 10° SSE 23:11:05 70° ENE 23:14:39 10° N
SJ-7 4.3 23:08:01 10° SSE 23:11:57 63° ENE 23:15:56 10° N
Lacrosse 5 3.4 23:12:39 10° SSE 23:16:19 20° ESE 23:20:00 10° ENE
Meteor 1-31 Rocket 3.2 23:13:44 10° SE 23:17:07 36° ENE 23:20:33 10° N
Cosmos 2263 Rocket 2.2 23:13:17 10° SSW 23:18:50 84° ESE 23:24:26 10° NNE
SJ-11-01 4.4 23:14:24 10° SSE 23:19:02 84° WSW 23:23:42 10° NNW
Cosmos 1953 Rocket 4.3 23:14:42 10° NNW 23:19:07 60° W 23:23:26 10° S
Cosmos 1844 Rocket 4.2 23:16:20 10° SE 23:19:47 17° E 23:23:13 10° ENE
Cosmos 1269 Rocket 4.1 23:14:57 10° NNW 23:20:15 85° WSW 23:25:32 10° SSE
Cosmos 1666 2.7 23:17:44 10° N 23:21:11 47° E 23:24:36 10° SSE
CORIOLIS 4.2 23:18:50 10° SSE 23:24:05 61° ENE 23:29:23 10° N
Helios 1A 4.0 23:20:50 10° NE 23:24:23 27° E 23:27:54 10° SSE
Cosmos 2227 Rocket 3.8 23:20:54 10° WSW 23:25:55 32° NW 23:30:58 10° N
Tiangong 1.0 23:25:03 10° WSW 23:26:43 14° SSW 23:28:23 10° S
ERS-2 3.3 23:25:37 10° S 23:28:21 37° W 23:31:07 10° NNW
Helios 1B rocket 3.2 23:27:50 10° S 23:31:41 54° W 23:35:33 10° NNW
Cosmos 1782 4.1 23:30:11 10° SE 23:33:04 20° E 23:35:34 12° NE
Cosmos 1602 3.6 23:30:44 10° N 23:34:25 58° E 23:38:05 10° SSE
CZ-4B R/B 3.6 23:30:59 10° SSE 23:34:30 60° ENE 23:38:05 10° N
USA 307 2.9 23:31:57 10° NW 23:35:43 48° NNE 23:39:23 10° ESE
USA 276 2.1 23:34:13 10° W 23:36:33 46° NNW 23:38:09 17° NE
Cosmos 1603 4.1 23:35:25 10° NNW 23:40:44 39° ENE 23:45:58 10° SE
Cosmos 2058 Rocket 4.2 23:38:57 10° SSW 23:43:13 46° WNW 23:47:28 10° N
COSMO-SKYMED 1 3.4 23:40:15 10° NE 23:44:03 29° E 23:47:50 10° SSE
Cosmos-2242 3.0 23:42:06 10° S 23:46:22 65° E 23:50:40 10° NNE
Cosmos 2151 4.5 23:45:50 10° NNW 23:49:49 39° W 23:53:47 10° SSW
USA 234 3.3 23:44:06 13° NE 23:50:07 76° SE 23:56:38 10° SW
Cosmos 1140 Rocket 3.5 23:45:05 10° NNW 23:50:13 59° ENE 23:55:16 10° SSE
Cosmos 1500 4.3 23:48:24 10° NNW 23:51:46 42° W 23:55:07 10° SSW
SL-16 R/B 3.9 23:48:30 10° NW 23:53:40 37° WSW 23:58:47 10° S
AQUARIUS 4.2 23:50:02 10° SSE 23:54:29 87° WSW 23:58:59 10° NNW
